Time,TemperatureF,DewpointF,PressureIn,WindDirection,WindDirectionDegrees,WindSpeedMPH,WindSpeedGustMPH,Humidity,HourlyPrecipIn,Conditions,Clouds,dailyrainin,SolarRadiationWatts/m^2,SoftwareType,DateUTC
2013-05-09 00:02:00,55.0,38.2,30.79,SE,125,0.0,3.0,53,0.00,,,0.00,0.00,VWS V14.00,2013-05-09 06:02:00,
2013-05-09 00:07:00,54.9,37.6,30.77,SE,125,2.0,2.0,52,0.00,,,0.00,0.00,VWS V14.00,2013-05-09 06:07:00,
2013-05-09 00:12:00,54.7,37.4,30.77,SE,125,0.0,2.0,52,0.00,,,0.00,0.00,VWS V14.00,2013-05-09 06:12:00,
2013-05-09 00:17:00,54.5,37.7,30.77,SE,125,1.0,2.0,53,0.00,,,0.00,0.00,VWS V14.00,2013-05-09 06:17:00,
2013-05-09 00:22:00,54.2,37.5,30.79,SE,125,2.0,3.0,53,0.00,,,0.00,0.00,VWS V14.00,2013-05-09 06:22:00,
2013-05-09 00:27:00,54.0,37.8,30.79,SE,125,3.0,4.0,54,0.00,,,0.00,0.00,VWS V14.00,2013-05-09 06:27:00,
2013-05-09 00:32:00,53.8,38.5,30.79,SE,125,2.0,4.0,56,0.00,,,0.00,0.00,VWS V14.00,2013-05-09 06:32:00,
2013-05-09 00:37:00,53.6,39.2,30.79,SE,125,0.0,1.0,58,0.00,,,0.00,0.00,VWS V14.00,2013-05-09 06:37:00,
2013-05-09 00:42:00,53.0,39.1,30.79,SE,125,0.0,2.0,59,0.00,,,0.00,0.00,VWS V14.00,2013-05-09 06:42:00,
2013-05-09 00:47:00,52.6,38.7,30.79,SE,125,0.0,2.0,59,0.00,,,0.00,0.00,VWS V14.00,2013-05-09 06:47:00,
2013-05-09 00:52:00,52.3,38.8,30.81,SE,125,0.0,2.0,60,0.00,,,0.00,0.00,VWS V14.00,2013-05-09 06:52:00,
2013-05-09 00:57:00,52.0,38.1,30.80,SE,125,3.0,3.0,59,0.00,,,0.00,0.00,VWS V14.00,2013-05-09 06:57:00,
2013-05-09 01:02:00,52.2,37.9,30.80,SE,125,4.0,4.0,58,0.00,,,0.00,0.00,VWS V14.00,2013-05-09 07:02:00,
2013-05-09 01:07:00,52.3,37.5,30.79,SE,136,2.0,4.0,57,0.00,,,0.00,0.00,VWS V14.00,2013-05-09 07:07:00,
2013-05-09 01:12:00,52.3,37.5,30.79,SE,136,0.0,4.0,57,0.00,,,0.00,0.00,VWS V14.00,2013-05-09 07:12:00,
2013-05-09 01:17:00,51.9,38.9,30.79,SE,136,1.0,4.0,61,0.00,,,0.00,0.00,VWS V14.00,2013-05-09 07:17:00,
2013-05-09 01:22:00,51.2,37.8,30.80,SE,136,0.0,1.0,60,0.00,,,0.00,0.00,VWS V14.00,2013-05-09 07:22:00,
2013-05-09 01:27:00,50.5,37.2,30.80,SE,136,1.0,2.0,60,0.00,,,0.00,0.00,VWS V14.00,2013-05-09 07:27:00,
2013-05-09 01:32:00,50.3,38.2,30.80,SE,136,0.0,2.0,63,0.00,,,0.00,0.00,VWS V14.00,2013-05-09 07:32:00,
2013-05-09 01:37:00,49.9,38.2,30.80,SE,136,0.0,0.0,64,0.00,,,0.00,0.00,VWS V14.00,2013-05-09 07:37:00,
2013-05-09 01:42:00,49.6,38.7,30.80,SE,136,0.0,1.0,66,0.00,,,0.00,0.00,VWS V14.00,2013-05-09 07:42:00,
2013-05-09 01:47:00,49.5,39.0,30.80,SE,136,0.0,1.0,67,0.00,,,0.00,0.00,VWS V14.00,2013-05-09 07:47:00,
2013-05-09 01:52:00,49.0,37.8,30.81,SE,136,0.0,1.0,65,0.00,,,0.00,0.00,VWS V14.00,2013-05-09 07:52:00,
2013-05-09 01:57:00,48.9,37.3,30.81,SE,136,0.0,2.0,64,0.00,,,0.00,0.00,VWS V14.00,2013-05-09 07:57:00,
2013-05-09 02:02:00,48.9,38.4,30.81,SE,136,0.0,2.0,67,0.00,,,0.00,0.00,VWS V14.00,2013-05-09 08:02:00,
2013-05-09 02:07:00,48.7,38.2,30.80,SE,136,2.0,2.0,67,0.00,,,0.00,0.00,VWS V14.00,2013-05-09 08:07:00,
2013-05-09 02:12:00,48.4,37.2,30.80,SE,136,1.0,2.0,65,0.00,,,0.00,0.00,VWS V14.00,2013-05-09 08:12:00,
2013-05-09 02:17:00,48.2,37.8,30.81,SE,136,0.0,2.0,67,0.00,,,0.00,0.00,VWS V14.00,2013-05-09 08:17:00,
2013-05-09 02:22:00,48.1,36.9,30.81,SE,136,0.0,2.0,65,0.00,,,0.00,0.00,VWS V14.00,2013-05-09 08:22:00,
2013-05-09 02:27:00,48.3,37.1,30.81,SE,136,1.0,2.0,65,0.00,,,0.00,0.00,VWS V14.00,2013-05-09 08:27:00,
2013-05-09 02:32:00,48.6,38.5,30.81,SE,136,0.0,4.0,68,0.00,,,0.00,0.00,VWS V14.00,2013-05-09 08:32:00,
2013-05-09 02:37:00,48.6,37.8,30.81,SE,136,0.0,0.0,66,0.00,,,0.00,0.00,VWS V14.00,2013-05-09 08:37:00,
2013-05-09 02:42:00,48.7,37.9,30.81,SE,136,0.0,1.0,66,0.00,,,0.00,0.00,VWS V14.00,2013-05-09 08:42:00,
2013-05-09 02:47:00,49.1,37.5,30.81,SE,136,0.0,3.0,64,0.00,,,0.00,0.00,VWS V14.00,2013-05-09 08:47:00,
2013-05-09 02:52:00,49.3,38.0,30.81,SE,136,0.0,0.0,65,0.00,,,0.00,0.00,VWS V14.00,2013-05-09 08:52:00,
2013-05-09 02:57:00,49.3,38.0,30.81,SE,136,0.0,0.0,65,0.00,,,0.00,0.00,VWS V14.00,2013-05-09 08:57:00,
2013-05-09 03:02:00,49.4,37.3,30.81,SE,136,1.0,2.0,63,0.00,,,0.00,0.00,VWS V14.00,2013-05-09 09:02:00,
2013-05-09 03:07:00,49.5,38.2,30.81,SE,136,0.0,1.0,65,0.00,,,0.00,0.00,VWS V14.00,2013-05-09 09:07:00,
2013-05-09 03:12:00,49.5,38.6,30.81,SE,136,0.0,1.0,66,0.00,,,0.00,0.00,VWS V14.00,2013-05-09 09:12:00,
2013-05-09 03:17:00,49.4,38.1,30.81,SE,136,2.0,2.0,65,0.00,,,0.00,0.00,VWS V14.00,2013-05-09 09:17:00,
2013-05-09 03:22:00,49.2,38.0,30.81,SE,136,2.0,3.0,65,0.00,,,0.00,0.00,VWS V14.00,2013-05-09 09:22:00,
2013-05-09 03:27:00,48.7,38.2,30.81,SE,136,0.0,3.0,67,0.00,,,0.00,0.00,VWS V14.00,2013-05-09 09:27:00,
2013-05-09 03:32:00,48.5,38.1,30.81,SE,136,0.0,3.0,67,0.00,,,0.00,0.00,VWS V14.00,2013-05-09 09:32:00,
2013-05-09 03:37:00,48.1,37.7,30.82,SE,136,0.0,0.0,67,0.00,,,0.00,0.00,VWS V14.00,2013-05-09 09:37:00,
2013-05-09 03:42:00,47.8,37.0,30.82,SE,136,0.0,2.0,66,0.00,,,0.00,0.00,VWS V14.00,2013-05-09 09:42:00,
2013-05-09 03:47:00,47.6,38.0,30.83,SE,136,0.0,2.0,69,0.00,,,0.00,0.00,VWS V14.00,2013-05-09 09:47:00,
2013-05-09 03:52:00,47.4,37.4,30.83,SE,136,0.0,0.0,68,0.00,,,0.00,0.00,VWS V14.00,2013-05-09 09:52:00,
2013-05-09 03:57:00,47.2,37.6,30.83,SE,136,0.0,0.0,69,0.00,,,0.00,0.00,VWS V14.00,2013-05-09 09:57:00,
2013-05-09 04:02:00,47.1,38.2,30.83,SE,136,0.0,0.0,71,0.00,,,0.00,0.00,VWS V14.00,2013-05-09 10:02:00,
2013-05-09 04:07:00,46.5,37.6,30.83,SE,136,0.0,0.0,71,0.00,,,0.00,0.00,VWS V14.00,2013-05-09 10:07:00,
2013-05-09 04:12:00,46.0,37.5,30.83,SE,136,1.0,2.0,72,0.00,,,0.00,0.00,VWS V14.00,2013-05-09 10:12:00,
2013-05-09 04:17:00,45.6,37.5,30.83,SE,136,0.0,2.0,73,0.00,,,0.00,0.00,VWS V14.00,2013-05-09 10:17:00,
2013-05-09 04:22:00,45.6,37.1,30.83,SE,136,2.0,2.0,72,0.00,,,0.00,0.00,VWS V14.00,2013-05-09 10:22:00,
2013-05-09 04:27:00,45.5,38.4,30.84,SE,136,0.0,3.0,76,0.00,,,0.00,0.00,VWS V14.00,2013-05-09 10:27:00,
2013-05-09 04:32:00,45.7,36.8,30.83,SE,136,1.0,4.0,71,0.00,,,0.00,0.00,VWS V14.00,2013-05-09 10:32:00,
2013-05-09 04:37:00,46.2,37.3,30.84,SE,136,0.0,0.0,71,0.00,,,0.00,0.00,VWS V14.00,2013-05-09 10:37:00,
2013-05-09 04:42:00,46.4,37.2,30.84,SE,136,3.0,4.0,70,0.00,,,0.00,0.00,VWS V14.00,2013-05-09 10:42:00,
2013-05-09 04:47:00,46.7,37.1,30.84,SE,136,0.0,4.0,69,0.00,,,0.00,0.00,VWS V14.00,2013-05-09 10:47:00,
2013-05-09 04:52:00,46.9,36.9,30.84,SE,136,0.0,2.0,68,0.00,,,0.00,0.00,VWS V14.00,2013-05-09 10:52:00,
2013-05-09 04:57:00,47.2,37.2,30.84,SE,136,2.0,4.0,68,0.00,,,0.00,0.00,VWS V14.00,2013-05-09 10:57:00,
2013-05-09 05:02:00,47.4,37.0,30.84,SSE,158,2.0,5.0,67,0.00,,,0.00,0.00,VWS V14.00,2013-05-09 11:02:00,
2013-05-09 05:07:00,47.6,37.2,30.84,SSE,158,3.0,4.0,67,0.00,,,0.00,0.00,VWS V14.00,2013-05-09 11:07:00,
2013-05-09 05:12:00,47.8,37.0,30.84,SSE,158,2.0,4.0,66,0.00,,,0.00,0.00,VWS V14.00,2013-05-09 11:12:00,
2013-05-09 05:17:00,48.0,36.8,30.84,SSE,157,2.0,4.0,65,0.00,,,0.00,0.00,VWS V14.00,2013-05-09 11:17:00,
2013-05-09 05:22:00,48.2,37.4,30.84,SSE,158,0.0,1.0,66,0.00,,,0.00,0.00,VWS V14.00,2013-05-09 11:22:00,
2013-05-09 05:27:00,48.2,37.0,30.84,SSE,158,1.0,3.0,65,0.00,,,0.00,0.00,VWS V14.00,2013-05-09 11:27:00,
2013-05-09 05:32:00,48.3,36.7,30.84,SSE,158,1.0,3.0,64,0.00,,,0.00,0.00,VWS V14.00,2013-05-09 11:32:00,
2013-05-09 05:37:00,48.3,36.7,30.84,SSE,157,2.0,2.0,64,0.00,,,0.00,0.00,VWS V14.00,2013-05-09 11:37:00,
2013-05-09 05:42:00,48.3,36.7,30.84,SSE,158,0.0,2.0,64,0.00,,,0.00,0.00,VWS V14.00,2013-05-09 11:42:00,
2013-05-09 05:47:00,48.2,37.4,30.84,SSE,158,0.0,2.0,66,0.00,,,0.00,0.00,VWS V14.00,2013-05-09 11:47:00,
2013-05-09 05:52:00,48.0,36.8,30.84,SSE,157,2.0,3.0,65,0.00,,,0.00,0.00,VWS V14.00,2013-05-09 11:52:00,
2013-05-09 05:57:00,47.0,35.9,30.84,SSE,157,1.0,3.0,65,0.00,,,0.00,0.00,VWS V14.00,2013-05-09 11:57:00,
2013-05-09 06:02:00,46.3,36.0,30.85,SSE,157,0.0,3.0,67,0.00,,,0.00,0.00,VWS V14.00,2013-05-09 12:02:00,
2013-05-09 06:07:00,45.1,35.9,30.86,SSE,158,0.0,2.0,70,0.00,,,0.00,0.00,VWS V14.00,2013-05-09 12:07:00,
2013-05-09 06:12:00,44.3,35.5,30.87,SSE,157,0.0,2.0,71,0.00,,,0.00,0.00,VWS V14.00,2013-05-09 12:12:00,
2013-05-09 06:17:00,43.9,35.5,30.87,SSE,158,0.0,2.0,72,0.00,,,0.00,0.00,VWS V14.00,2013-05-09 12:17:00,
2013-05-09 06:22:00,43.7,36.0,30.86,SSE,158,0.0,0.0,74,0.00,,,0.00,0.00,VWS V14.00,2013-05-09 12:22:00,
2013-05-09 06:27:00,43.6,35.9,30.87,SSE,157,0.0,0.0,74,0.00,,,0.00,5.00,VWS V14.00,2013-05-09 12:27:00,
2013-05-09 06:32:00,43.8,36.4,30.87,SSE,157,0.0,3.0,75,0.00,,,0.00,7.00,VWS V14.00,2013-05-09 12:32:00,
2013-05-09 06:37:00,44.2,36.5,30.87,SSE,158,2.0,3.0,74,0.00,,,0.00,11.00,VWS V14.00,2013-05-09 12:37:00,
2013-05-09 06:42:00,44.7,37.6,30.87,SSE,158,1.0,3.0,76,0.00,,,0.00,14.00,VWS V14.00,2013-05-09 12:42:00,
2013-05-09 06:47:00,45.2,36.4,30.88,SSE,158,2.0,3.0,71,0.00,,,0.00,21.00,VWS V14.00,2013-05-09 12:47:00,
2013-05-09 06:52:00,45.7,37.2,30.87,SSE,157,0.0,1.0,72,0.00,,,0.00,26.00,VWS V14.00,2013-05-09 12:52:00,
2013-05-09 06:57:00,45.9,37.0,30.87,SSE,158,0.0,2.0,71,0.00,,,0.00,30.00,VWS V14.00,2013-05-09 12:57:00,
2013-05-09 07:02:00,46.1,36.9,30.87,SSE,158,3.0,4.0,70,0.00,,,0.00,35.00,VWS V14.00,2013-05-09 13:02:00,
2013-05-09 07:07:00,46.3,37.1,30.89,SSE,157,2.0,3.0,70,0.00,,,0.00,40.00,VWS V14.00,2013-05-09 13:07:00,
2013-05-09 07:12:00,46.5,36.9,30.89,SSE,158,0.0,3.0,69,0.00,,,0.00,51.00,VWS V14.00,2013-05-09 13:12:00,
2013-05-09 07:17:00,46.7,37.1,30.89,SSE,158,0.0,3.0,69,0.00,,,0.00,44.00,VWS V14.00,2013-05-09 13:17:00,
2013-05-09 07:22:00,46.8,36.8,30.89,SSE,158,1.0,2.0,68,0.00,,,0.00,44.00,VWS V14.00,2013-05-09 13:22:00,
2013-05-09 07:27:00,47.0,37.4,30.89,SSE,157,0.0,2.0,69,0.00,,,0.00,51.00,VWS V14.00,2013-05-09 13:27:00,
2013-05-09 07:32:00,47.2,37.6,30.89,SSE,158,0.0,2.0,69,0.00,,,0.00,40.00,VWS V14.00,2013-05-09 13:32:00,
2013-05-09 07:37:00,47.3,38.7,30.89,SSE,157,0.0,1.0,72,0.00,,,0.00,46.00,VWS V14.00,2013-05-09 13:37:00,
2013-05-09 07:42:00,47.5,39.3,30.90,SSE,157,0.0,1.0,73,0.00,,,0.00,46.00,VWS V14.00,2013-05-09 13:42:00,
2013-05-09 07:47:00,47.6,39.7,30.90,SSE,158,0.0,1.0,74,0.00,,,0.00,58.00,VWS V14.00,2013-05-09 13:47:00,
2013-05-09 07:52:00,47.6,37.6,30.90,SSE,158,2.0,2.0,68,0.00,,,0.00,58.00,VWS V14.00,2013-05-09 13:52:00,
2013-05-09 07:57:00,47.8,37.8,30.90,SSE,157,0.0,3.0,68,0.00,,,0.00,86.00,VWS V14.00,2013-05-09 13:57:00,
2013-05-09 08:02:00,48.2,38.5,30.90,SSE,157,1.0,4.0,69,0.00,,,0.00,221.00,VWS V14.00,2013-05-09 14:02:00,
2013-05-09 08:07:00,48.6,38.9,30.92,SSE,158,1.0,2.0,69,0.00,,,0.00,265.00,VWS V14.00,2013-05-09 14:07:00,
2013-05-09 08:12:00,49.2,38.7,30.92,SSE,157,2.0,4.0,67,0.00,,,0.00,281.00,VWS V14.00,2013-05-09 14:12:00,
2013-05-09 08:17:00,49.8,39.7,30.92,SSE,158,3.0,4.0,68,0.00,,,0.00,299.00,VWS V14.00,2013-05-09 14:17:00,
2013-05-09 08:22:00,50.4,39.9,30.92,SSE,158,3.0,4.0,67,0.00,,,0.00,315.00,VWS V14.00,2013-05-09 14:22:00,
2013-05-09 08:27:00,50.8,39.9,30.91,SSE,159,3.0,5.0,66,0.00,,,0.00,330.00,VWS V14.00,2013-05-09 14:27:00,
2013-05-09 08:32:00,51.4,40.4,30.91,SSE,159,1.0,5.0,66,0.00,,,0.00,345.00,VWS V14.00,2013-05-09 14:32:00,
2013-05-09 08:37:00,51.8,40.4,30.91,SSE,159,1.0,2.0,65,0.00,,,0.00,360.00,VWS V14.00,2013-05-09 14:37:00,
2013-05-09 08:42:00,52.3,40.5,30.91,SSE,159,2.0,3.0,64,0.00,,,0.00,378.00,VWS V14.00,2013-05-09 14:42:00,
2013-05-09 08:47:00,52.8,40.6,30.90,SSE,159,2.0,3.0,63,0.00,,,0.00,390.00,VWS V14.00,2013-05-09 14:47:00,
2013-05-09 08:52:00,53.4,40.3,30.90,SSE,159,3.0,3.0,61,0.00,,,0.00,406.00,VWS V14.00,2013-05-09 14:52:00,
2013-05-09 08:57:00,54.0,40.9,30.90,SSE,159,0.0,3.0,61,0.00,,,0.00,420.00,VWS V14.00,2013-05-09 14:57:00,
2013-05-09 09:02:00,54.5,40.5,30.89,SSE,159,1.0,3.0,59,0.00,,,0.00,438.00,VWS V14.00,2013-05-09 15:02:00,
2013-05-09 09:07:00,55.1,40.6,30.91,South,188,3.0,5.0,58,0.00,,,0.00,454.00,VWS V14.00,2013-05-09 15:07:00,
2013-05-09 09:12:00,55.7,41.2,30.91,South,178,4.0,7.0,58,0.00,,,0.00,468.00,VWS V14.00,2013-05-09 15:12:00,
2013-05-09 09:17:00,56.3,41.3,30.91,South,184,1.0,10.0,57,0.00,,,0.00,483.00,VWS V14.00,2013-05-09 15:17:00,
2013-05-09 09:22:00,56.9,41.8,30.90,South,173,4.0,6.0,57,0.00,,,0.00,517.00,VWS V14.00,2013-05-09 15:22:00,
2013-05-09 09:27:00,57.5,41.0,30.90,South,172,4.0,9.0,54,0.00,,,0.00,309.00,VWS V14.00,2013-05-09 15:27:00,
2013-05-09 09:32:00,57.8,41.3,30.90,SSE,165,5.0,9.0,54,0.00,,,0.00,533.00,VWS V14.00,2013-05-09 15:32:00,
2013-05-09 09:37:00,58.3,42.2,30.89,SSW,198,4.0,6.0,55,0.00,,,0.00,538.00,VWS V14.00,2013-05-09 15:37:00,
2013-05-09 09:42:00,58.9,41.3,30.89,SSE,150,4.0,6.0,52,0.00,,,0.00,563.00,VWS V14.00,2013-05-09 15:42:00,
2013-05-09 09:47:00,59.2,42.1,30.89,West,263,6.0,6.0,53,0.00,,,0.00,591.00,VWS V14.00,2013-05-09 15:47:00,
2013-05-09 09:52:00,59.9,42.2,30.88,SW,227,0.0,5.0,52,0.00,,,0.00,628.00,VWS V14.00,2013-05-09 15:52:00,
2013-05-09 09:57:00,60.3,42.6,30.88,South,190,3.0,6.0,52,0.00,,,0.00,151.00,VWS V14.00,2013-05-09 15:57:00,
2013-05-09 10:02:00,60.7,42.5,30.87,South,174,3.0,6.0,51,0.00,,,0.00,517.00,VWS V14.00,2013-05-09 16:02:00,
2013-05-09 10:07:00,61.2,43.0,30.90,South,173,3.0,4.0,51,0.00,,,0.00,684.00,VWS V14.00,2013-05-09 16:07:00,
2013-05-09 10:12:00,61.7,42.4,30.89,South,186,3.0,7.0,49,0.00,,,0.00,654.00,VWS V14.00,2013-05-09 16:12:00,
2013-05-09 10:17:00,62.1,41.1,30.89,South,182,3.0,7.0,46,0.00,,,0.00,406.00,VWS V14.00,2013-05-09 16:17:00,
2013-05-09 10:22:00,62.3,41.8,30.89,South,185,3.0,4.0,47,0.00,,,0.00,703.00,VWS V14.00,2013-05-09 16:22:00,
2013-05-09 10:27:00,62.6,42.1,30.89,South,191,4.0,5.0,47,0.00,,,0.00,675.00,VWS V14.00,2013-05-09 16:27:00,
2013-05-09 10:32:00,62.7,41.6,30.89,South,191,3.0,5.0,46,0.00,,,0.00,680.00,VWS V14.00,2013-05-09 16:32:00,
2013-05-09 10:37:00,63.0,43.0,30.88,South,191,0.0,0.0,48,0.00,,,0.00,684.00,VWS V14.00,2013-05-09 16:37:00,
2013-05-09 10:42:00,63.4,41.7,30.89,South,191,2.0,5.0,45,0.00,,,0.00,701.00,VWS V14.00,2013-05-09 16:42:00,
2013-05-09 10:47:00,63.9,42.2,30.88,South,191,0.0,5.0,45,0.00,,,0.00,719.00,VWS V14.00,2013-05-09 16:47:00,
2013-05-09 10:52:00,64.3,44.2,30.87,South,191,1.0,2.0,48,0.00,,,0.00,735.00,VWS V14.00,2013-05-09 16:52:00,
2013-05-09 10:57:00,64.9,45.8,30.87,South,191,1.0,3.0,50,0.00,,,0.00,782.00,VWS V14.00,2013-05-09 16:57:00,
2013-05-09 11:02:00,65.4,42.3,30.87,West,269,2.0,6.0,43,0.00,,,0.00,809.00,VWS V14.00,2013-05-09 17:02:00,
2013-05-09 11:07:00,65.7,43.2,30.87,West,269,1.0,4.0,44,0.00,,,0.00,833.00,VWS V14.00,2013-05-09 17:07:00,
2013-05-09 11:12:00,66.0,43.5,30.87,West,271,0.0,4.0,44,0.00,,,0.00,819.00,VWS V14.00,2013-05-09 17:12:00,
2013-05-09 11:17:00,66.4,45.0,30.86,West,271,3.0,4.0,46,0.00,,,0.00,788.00,VWS V14.00,2013-05-09 17:17:00,
2013-05-09 11:22:00,66.7,44.1,30.86,WNW,301,3.0,3.0,44,0.00,,,0.00,786.00,VWS V14.00,2013-05-09 17:22:00,
2013-05-09 11:27:00,66.9,45.5,30.85,NNW,333,2.0,7.0,46,0.00,,,0.00,803.00,VWS V14.00,2013-05-09 17:27:00,
2013-05-09 11:32:00,66.9,46.0,30.86,NNW,346,4.0,7.0,47,0.00,,,0.00,816.00,VWS V14.00,2013-05-09 17:32:00,
2013-05-09 11:37:00,67.0,45.0,30.85,North,349,3.0,5.0,45,0.00,,,0.00,814.00,VWS V14.00,2013-05-09 17:37:00,
2013-05-09 11:42:00,67.1,44.5,30.85,NNW,331,3.0,7.0,44,0.00,,,0.00,775.00,VWS V14.00,2013-05-09 17:42:00,
2013-05-09 11:47:00,67.1,44.5,30.85,NNW,331,1.0,7.0,44,0.00,,,0.00,816.00,VWS V14.00,2013-05-09 17:47:00,
2013-05-09 11:52:00,67.3,44.7,30.85,NNW,331,3.0,5.0,44,0.00,,,0.00,853.00,VWS V14.00,2013-05-09 17:52:00,
2013-05-09 11:57:00,67.6,47.2,30.85,NNW,331,2.0,6.0,48,0.00,,,0.00,858.00,VWS V14.00,2013-05-09 17:57:00,
2013-05-09 12:02:00,67.8,43.9,30.85,NNW,329,3.0,6.0,42,0.00,,,0.00,882.00,VWS V14.00,2013-05-09 18:02:00,
2013-05-09 12:07:00,68.3,46.7,30.86,NNW,329,5.0,5.0,46,0.00,,,0.00,919.00,VWS V14.00,2013-05-09 18:07:00,
2013-05-09 12:12:00,69.0,49.1,30.85,NNW,329,3.0,5.0,49,0.00,,,0.00,559.00,VWS V14.00,2013-05-09 18:12:00,
2013-05-09 12:17:00,69.5,46.0,30.84,NNW,346,2.0,6.0,43,0.00,,,0.00,984.00,VWS V14.00,2013-05-09 18:17:00,
2013-05-09 12:22:00,70.0,46.5,30.84,NNW,336,3.0,6.0,43,0.00,,,0.00,933.00,VWS V14.00,2013-05-09 18:22:00,
2013-05-09 12:27:00,70.1,46.6,30.85,North,349,4.0,7.0,43,0.00,,,0.00,972.00,VWS V14.00,2013-05-09 18:27:00,
2013-05-09 12:32:00,70.5,47.0,30.84,NNW,344,3.0,7.0,43,0.00,,,0.00,1109.00,VWS V14.00,2013-05-09 18:32:00,
2013-05-09 12:37:00,71.0,44.8,30.84,NNW,341,4.0,4.0,39,0.00,,,0.00,1130.00,VWS V14.00,2013-05-09 18:37:00,
2013-05-09 12:42:00,70.8,48.4,30.85,NW,319,6.0,8.0,45,0.00,,,0.00,329.00,VWS V14.00,2013-05-09 18:42:00,
2013-05-09 12:47:00,70.0,48.3,30.85,NW,326,11.0,15.0,46,0.00,,,0.00,413.00,VWS V14.00,2013-05-09 18:47:00,
2013-05-09 12:52:00,69.1,45.7,30.87,NNW,338,6.0,11.0,43,0.00,,,0.00,125.00,VWS V14.00,2013-05-09 18:52:00,
2013-05-09 12:57:00,68.3,45.0,30.86,North,355,3.0,11.0,43,0.00,,,0.00,93.00,VWS V14.00,2013-05-09 18:57:00,
2013-05-09 13:02:00,67.9,46.4,30.85,North,355,0.0,11.0,46,0.00,,,0.00,86.00,VWS V14.00,2013-05-09 19:02:00,
2013-05-09 13:07:00,67.6,44.3,30.87,North,360,4.0,6.0,43,0.00,,,0.00,86.00,VWS V14.00,2013-05-09 19:07:00,
2013-05-09 13:12:00,67.4,44.2,30.86,North,360,0.0,6.0,43,0.00,,,0.00,95.00,VWS V14.00,2013-05-09 19:12:00,
2013-05-09 13:17:00,67.2,42.7,30.87,North,360,0.0,6.0,41,0.00,,,0.00,123.00,VWS V14.00,2013-05-09 19:17:00,
2013-05-09 13:22:00,67.2,46.3,30.86,North,360,0.0,0.0,47,0.00,,,0.00,575.00,VWS V14.00,2013-05-09 19:22:00,
2013-05-09 13:27:00,67.6,46.1,30.86,WSW,247,2.0,9.0,46,0.00,,,0.00,921.00,VWS V14.00,2013-05-09 19:27:00,
2013-05-09 13:32:00,68.8,45.4,30.85,WSW,250,3.0,9.0,43,0.00,,,0.00,912.00,VWS V14.00,2013-05-09 19:32:00,
2013-05-09 13:37:00,70.2,46.7,30.84,SSW,208,5.0,6.0,43,0.00,,,0.00,905.00,VWS V14.00,2013-05-09 19:37:00,
2013-05-09 13:42:00,71.4,45.8,30.84,SSW,208,1.0,6.0,40,0.00,,,0.00,911.00,VWS V14.00,2013-05-09 19:42:00,
2013-05-09 13:47:00,72.7,48.3,30.82,NW,318,2.0,6.0,42,0.00,,,0.00,918.00,VWS V14.00,2013-05-09 19:47:00,
2013-05-09 13:52:00,73.6,47.8,30.82,NW,318,2.0,3.0,40,0.00,,,0.00,940.00,VWS V14.00,2013-05-09 19:52:00,
2013-05-09 13:57:00,74.4,44.2,30.82,NW,315,0.0,5.0,34,0.00,,,0.00,984.00,VWS V14.00,2013-05-09 19:57:00,
2013-05-09 14:02:00,75.3,45.0,30.81,NW,315,3.0,5.0,34,0.00,,,0.00,724.00,VWS V14.00,2013-05-09 20:02:00,
2013-05-09 14:07:00,75.8,49.1,30.80,NW,315,4.0,5.0,39,0.00,,,0.00,744.00,VWS V14.00,2013-05-09 20:07:00,
2013-05-09 14:12:00,75.6,44.5,30.80,NW,314,3.0,6.0,33,0.00,,,0.00,195.00,VWS V14.00,2013-05-09 20:12:00,
2013-05-09 14:17:00,74.8,45.3,30.82,NW,315,4.0,6.0,35,0.00,,,0.00,134.00,VWS V14.00,2013-05-09 20:17:00,
2013-05-09 14:22:00,73.9,46.0,30.82,WNW,294,6.0,7.0,37,0.00,,,0.00,93.00,VWS V14.00,2013-05-09 20:22:00,
2013-05-09 14:27:00,72.7,47.0,30.83,NW,306,5.0,8.0,40,0.00,,,0.00,76.00,VWS V14.00,2013-05-09 20:27:00,
2013-05-09 14:32:00,71.5,47.2,30.83,NW,316,9.0,12.0,42,0.00,,,0.00,72.00,VWS V14.00,2013-05-09 20:32:00,
2013-05-09 14:37:00,70.5,46.3,30.84,WNW,303,4.0,9.0,42,0.00,,,0.00,93.00,VWS V14.00,2013-05-09 20:37:00,
2013-05-09 14:42:00,69.7,48.6,30.84,NNW,329,4.0,9.0,47,0.00,,,0.00,156.00,VWS V14.00,2013-05-09 20:42:00,
2013-05-09 14:47:00,69.2,47.6,30.84,NNW,331,3.0,9.0,46,0.00,,,0.00,392.00,VWS V14.00,2013-05-09 20:47:00,
2013-05-09 14:52:00,69.2,45.8,30.83,NNW,330,1.0,2.0,43,0.00,,,0.00,244.00,VWS V14.00,2013-05-09 20:52:00,
2013-05-09 14:57:00,69.5,48.4,30.82,NNW,330,1.0,2.0,47,0.00,,,0.00,232.00,VWS V14.00,2013-05-09 20:57:00,
2013-05-09 15:02:00,69.8,49.2,30.82,NNW,331,2.0,3.0,48,0.00,,,0.00,211.00,VWS V14.00,2013-05-09 21:02:00,
2013-05-09 15:07:00,70.1,49.0,30.84,NNW,331,3.0,5.0,47,0.00,,,0.00,178.00,VWS V14.00,2013-05-09 21:07:00,
2013-05-09 15:12:00,70.2,49.0,30.84,NW,326,4.0,6.0,47,0.00,,,0.00,149.00,VWS V14.00,2013-05-09 21:12:00,
2013-05-09 15:17:00,70.1,51.2,30.84,NNW,327,2.0,6.0,51,0.00,,,0.00,155.00,VWS V14.00,2013-05-09 21:17:00,
2013-05-09 15:22:00,69.9,49.3,30.84,NW,324,4.0,6.0,48,0.00,,,0.00,181.00,VWS V14.00,2013-05-09 21:22:00,
2013-05-09 15:27:00,69.7,51.3,30.84,NW,323,1.0,6.0,52,0.00,,,0.00,167.00,VWS V14.00,2013-05-09 21:27:00,
2013-05-09 15:32:00,69.5,51.1,30.84,NW,323,0.0,6.0,52,0.00,,,0.00,178.00,VWS V14.00,2013-05-09 21:32:00,
2013-05-09 15:37:00,69.5,49.5,30.84,NW,324,2.0,4.0,49,0.00,,,0.00,200.00,VWS V14.00,2013-05-09 21:37:00,
2013-05-09 15:42:00,69.5,49.0,30.84,NW,324,2.0,4.0,48,0.00,,,0.00,206.00,VWS V14.00,2013-05-09 21:42:00,
2013-05-09 15:47:00,69.6,49.6,30.84,NW,323,1.0,4.0,49,0.00,,,0.00,230.00,VWS V14.00,2013-05-09 21:47:00,
2013-05-09 15:52:00,69.8,49.2,30.83,NW,324,0.0,3.0,48,0.00,,,0.00,258.00,VWS V14.00,2013-05-09 21:52:00,
2013-05-09 15:57:00,70.0,48.9,30.83,NW,324,1.0,3.0,47,0.00,,,0.00,308.00,VWS V14.00,2013-05-09 21:57:00,
2013-05-09 16:02:00,70.3,45.5,30.83,NW,323,2.0,4.0,41,0.00,,,0.00,552.00,VWS V14.00,2013-05-09 22:02:00,
2013-05-09 16:07:00,71.0,43.4,30.82,NW,321,2.0,5.0,37,0.00,,,0.00,640.00,VWS V14.00,2013-05-09 22:07:00,
2013-05-09 16:12:00,71.7,45.5,30.81,South,171,3.0,5.0,39,0.00,,,0.00,664.00,VWS V14.00,2013-05-09 22:12:00,
2013-05-09 16:17:00,72.6,44.1,30.81,SSE,157,4.0,7.0,36,0.00,,,0.00,877.00,VWS V14.00,2013-05-09 22:17:00,
2013-05-09 16:22:00,74.0,46.8,30.80,South,178,4.0,7.0,38,0.00,,,0.00,782.00,VWS V14.00,2013-05-09 22:22:00,
2013-05-09 16:27:00,74.9,43.9,30.79,SSE,165,4.0,7.0,33,0.00,,,0.00,812.00,VWS V14.00,2013-05-09 22:27:00,
2013-05-09 16:32:00,75.5,43.6,30.79,SSE,165,4.0,7.0,32,0.00,,,0.00,236.00,VWS V14.00,2013-05-09 22:32:00,
2013-05-09 16:37:00,75.5,43.6,30.79,SSE,165,0.0,1.0,32,0.00,,,0.00,172.00,VWS V14.00,2013-05-09 22:37:00,
2013-05-09 16:42:00,75.5,46.7,30.78,SSE,165,1.0,2.0,36,0.00,,,0.00,135.00,VWS V14.00,2013-05-09 22:42:00,
2013-05-09 16:47:00,75.4,45.1,30.79,SSE,164,0.0,3.0,34,0.00,,,0.00,134.00,VWS V14.00,2013-05-09 22:47:00,
2013-05-09 16:52:00,75.1,44.8,30.79,SSE,164,0.0,2.0,34,0.00,,,0.00,137.00,VWS V14.00,2013-05-09 22:52:00,
2013-05-09 16:57:00,74.8,46.1,30.79,SSE,165,0.0,2.0,36,0.00,,,0.00,130.00,VWS V14.00,2013-05-09 22:57:00,
2013-05-09 17:02:00,74.6,45.2,30.79,SSE,165,0.0,2.0,35,0.00,,,0.00,111.00,VWS V14.00,2013-05-09 23:02:00,
2013-05-09 17:07:00,74.4,44.2,30.81,SSE,165,0.0,0.0,34,0.00,,,0.00,91.00,VWS V14.00,2013-05-09 23:07:00,
2013-05-09 17:12:00,74.2,46.3,30.81,SSE,164,0.0,0.0,37,0.00,,,0.00,77.00,VWS V14.00,2013-05-09 23:12:00,
2013-05-09 17:17:00,73.9,46.0,30.81,SSE,164,2.0,3.0,37,0.00,,,0.00,84.00,VWS V14.00,2013-05-09 23:17:00,
2013-05-09 17:22:00,73.3,46.9,30.81,SSE,164,2.0,4.0,39,0.00,,,0.00,130.00,VWS V14.00,2013-05-09 23:22:00,
2013-05-09 17:28:00,73.0,45.2,30.81,SSE,164,2.0,4.0,37,0.00,,,0.00,172.00,VWS V14.00,2013-05-09 23:28:00,
2013-05-09 17:33:00,72.7,46.3,30.80,SSE,165,2.0,4.0,39,0.00,,,0.00,218.00,VWS V14.00,2013-05-09 23:33:00,
2013-05-09 17:38:00,72.7,45.7,30.81,SSE,165,2.0,4.0,38,0.00,,,0.00,202.00,VWS V14.00,2013-05-09 23:38:00,
2013-05-09 17:43:00,72.7,46.3,30.81,SSE,164,0.0,4.0,39,0.00,,,0.00,197.00,VWS V14.00,2013-05-09 23:43:00,
2013-05-09 17:48:00,72.8,49.6,30.81,SSE,165,2.0,4.0,44,0.00,,,0.00,385.00,VWS V14.00,2013-05-09 23:48:00,
2013-05-09 17:53:00,72.6,50.1,30.81,NNW,327,4.0,5.0,45,0.00,,,0.00,214.00,VWS V14.00,2013-05-09 23:53:00,
2013-05-09 17:58:00,72.0,48.3,30.81,North,349,0.0,5.0,43,0.00,,,0.00,234.00,VWS V14.00,2013-05-09 23:58:00,
2013-05-09 18:03:00,71.7,48.7,30.81,North,349,1.0,5.0,44,0.00,,,0.00,232.00,VWS V14.00,2013-05-10 00:03:00,
2013-05-09 18:08:00,71.5,49.7,30.80,North,349,2.0,4.0,46,0.00,,,0.00,287.00,VWS V14.00,2013-05-10 00:08:00,
2013-05-09 18:13:00,71.5,47.8,30.81,North,349,1.0,5.0,43,0.00,,,0.00,236.00,VWS V14.00,2013-05-10 00:13:00,
2013-05-09 18:18:00,71.5,45.3,30.80,North,349,1.0,5.0,39,0.00,,,0.00,278.00,VWS V14.00,2013-05-10 00:18:00,
2013-05-09 18:23:00,71.5,45.9,30.80,North,349,1.0,2.0,40,0.00,,,0.00,186.00,VWS V14.00,2013-05-10 00:23:00,
2013-05-09 18:28:00,71.6,48.6,30.80,North,349,2.0,3.0,44,0.00,,,0.00,167.00,VWS V14.00,2013-05-10 00:28:00,
2013-05-09 18:33:00,71.5,50.8,30.80,North,349,2.0,3.0,48,0.00,,,0.00,155.00,VWS V14.00,2013-05-10 00:33:00,
2013-05-09 18:38:00,71.1,47.5,30.81,NNW,348,3.0,4.0,43,0.00,,,0.00,146.00,VWS V14.00,2013-05-10 00:38:00,
2013-05-09 18:43:00,70.7,48.3,30.82,NNW,344,3.0,4.0,45,0.00,,,0.00,130.00,VWS V14.00,2013-05-10 00:43:00,
2013-05-09 18:48:00,70.3,48.6,30.82,NW,321,3.0,5.0,46,0.00,,,0.00,113.00,VWS V14.00,2013-05-10 00:48:00,
2013-05-09 18:53:00,69.9,48.8,30.81,NW,320,1.0,2.0,47,0.00,,,0.00,97.00,VWS V14.00,2013-05-10 00:53:00,
2013-05-09 18:58:00,69.6,48.5,30.81,NW,320,0.0,3.0,47,0.00,,,0.00,86.00,VWS V14.00,2013-05-10 00:58:00,
2013-05-09 19:03:00,69.4,47.7,30.82,NW,319,0.0,3.0,46,0.00,,,0.00,76.00,VWS V14.00,2013-05-10 01:03:00,
2013-05-09 19:08:00,69.1,48.6,30.82,NW,320,0.0,1.0,48,0.00,,,0.00,63.00,VWS V14.00,2013-05-10 01:08:00,
2013-05-09 19:13:00,68.9,45.5,30.82,NW,319,0.0,1.0,43,0.00,,,0.00,60.00,VWS V14.00,2013-05-10 01:13:00,
2013-05-09 19:18:00,68.7,46.5,30.82,NW,319,0.0,2.0,45,0.00,,,0.00,62.00,VWS V14.00,2013-05-10 01:18:00,
2013-05-09 19:23:00,68.5,48.1,30.82,NW,320,0.0,0.0,48,0.00,,,0.00,63.00,VWS V14.00,2013-05-10 01:23:00,
2013-05-09 19:28:00,68.3,45.6,30.82,NW,320,0.0,0.0,44,0.00,,,0.00,74.00,VWS V14.00,2013-05-10 01:28:00,
2013-05-09 19:33:00,68.3,51.5,30.81,NW,320,0.0,0.0,55,0.00,,,0.00,123.00,VWS V14.00,2013-05-10 01:33:00,
2013-05-09 19:38:00,68.0,49.7,30.81,NW,320,1.0,4.0,52,0.00,,,0.00,193.00,VWS V14.00,2013-05-10 01:38:00,
2013-05-09 19:43:00,68.0,49.2,30.81,NW,320,0.0,4.0,51,0.00,,,0.00,95.00,VWS V14.00,2013-05-10 01:43:00,
2013-05-09 19:48:00,68.1,50.3,30.81,NW,319,0.0,4.0,53,0.00,,,0.00,93.00,VWS V14.00,2013-05-10 01:48:00,
2013-05-09 19:53:00,68.0,49.2,30.81,NW,319,1.0,3.0,51,0.00,,,0.00,54.00,VWS V14.00,2013-05-10 01:53:00,
2013-05-09 19:58:00,67.8,48.5,30.82,NW,320,0.0,3.0,50,0.00,,,0.00,37.00,VWS V14.00,2013-05-10 01:58:00,
2013-05-09 20:03:00,67.6,50.4,30.82,NW,321,0.0,3.0,54,0.00,,,0.00,23.00,VWS V14.00,2013-05-10 02:03:00,
2013-05-09 20:08:00,67.4,50.7,30.79,NW,319,0.0,1.0,55,0.00,,,0.00,16.00,VWS V14.00,2013-05-10 02:08:00,
2013-05-09 20:13:00,67.0,47.8,30.79,NW,320,3.0,3.0,50,0.00,,,0.00,14.00,VWS V14.00,2013-05-10 02:13:00,
2013-05-09 20:18:00,66.7,45.8,30.80,South,171,2.0,5.0,47,0.00,,,0.00,14.00,VWS V14.00,2013-05-10 02:18:00,
2013-05-09 20:23:00,66.3,45.5,30.81,South,169,3.0,4.0,47,0.00,,,0.00,19.00,VWS V14.00,2013-05-10 02:23:00,
2013-05-09 20:28:00,66.2,46.5,30.81,SSE,165,2.0,4.0,49,0.00,,,0.00,16.00,VWS V14.00,2013-05-10 02:28:00,
2013-05-09 20:33:00,66.0,46.3,30.81,SSE,166,0.0,4.0,49,0.00,,,0.00,14.00,VWS V14.00,2013-05-10 02:33:00,
2013-05-09 20:38:00,65.7,46.0,30.81,SSE,166,0.0,2.0,49,0.00,,,0.00,11.00,VWS V14.00,2013-05-10 02:38:00,
2013-05-09 20:43:00,65.5,44.8,30.81,SSE,166,0.0,3.0,47,0.00,,,0.00,9.00,VWS V14.00,2013-05-10 02:43:00,
2013-05-09 20:48:00,65.1,49.0,30.81,SSE,166,0.0,3.0,56,0.00,,,0.00,9.00,VWS V14.00,2013-05-10 02:48:00,
2013-05-09 20:53:00,64.4,45.4,30.81,SSE,163,3.0,4.0,50,0.00,,,0.00,7.00,VWS V14.00,2013-05-10 02:53:00,
2013-05-09 20:58:00,64.1,45.1,30.82,SSE,160,2.0,5.0,50,0.00,,,0.00,0.00,VWS V14.00,2013-05-10 02:58:00,
2013-05-09 21:03:00,63.8,45.3,30.83,SSE,153,5.0,6.0,51,0.00,,,0.00,0.00,VWS V14.00,2013-05-10 03:03:00,
2013-05-09 21:08:00,63.9,43.3,30.81,SSE,165,6.0,9.0,47,0.00,,,0.00,0.00,VWS V14.00,2013-05-10 03:08:00,
2013-05-09 21:13:00,64.1,43.5,30.81,SE,142,4.0,10.0,47,0.00,,,0.00,0.00,VWS V14.00,2013-05-10 03:13:00,
2013-05-09 21:18:00,64.0,43.9,30.81,SSE,161,4.0,10.0,48,0.00,,,0.00,0.00,VWS V14.00,2013-05-10 03:18:00,
2013-05-09 21:23:00,63.9,43.3,30.81,SE,146,4.0,7.0,47,0.00,,,0.00,0.00,VWS V14.00,2013-05-10 03:23:00,
2013-05-09 21:28:00,63.7,43.7,30.82,SSE,152,4.0,8.0,48,0.00,,,0.00,0.00,VWS V14.00,2013-05-10 03:28:00,
2013-05-09 21:33:00,63.5,44.0,30.82,SSE,151,4.0,8.0,49,0.00,,,0.00,0.00,VWS V14.00,2013-05-10 03:33:00,
2013-05-09 21:38:00,63.2,43.7,30.82,SSE,168,3.0,4.0,49,0.00,,,0.00,0.00,VWS V14.00,2013-05-10 03:38:00,
2013-05-09 21:43:00,63.0,44.6,30.82,South,172,2.0,4.0,51,0.00,,,0.00,0.00,VWS V14.00,2013-05-10 03:43:00,
2013-05-09 21:48:00,62.2,43.9,30.83,SSE,162,4.0,5.0,51,0.00,,,0.00,0.00,VWS V14.00,2013-05-10 03:48:00,
2013-05-09 21:53:00,61.6,42.8,30.83,SSE,148,4.0,6.0,50,0.00,,,0.00,0.00,VWS V14.00,2013-05-10 03:53:00,
2013-05-09 21:58:00,61.4,43.1,30.83,SSE,164,4.0,6.0,51,0.00,,,0.00,0.00,VWS V14.00,2013-05-10 03:58:00,
2013-05-09 22:01:00,61.2,43.0,30.83,SSE,164,3.0,6.0,51,0.00,,,0.00,0.00,VWS V14.00,2013-05-10 04:01:00,
2013-05-09 22:02:00,61.1,42.3,30.83,SSE,164,3.0,6.0,50,0.00,,,0.00,0.00,VWS V14.00,2013-05-10 04:02:00,
2013-05-09 22:07:00,60.8,42.1,30.82,SSE,164,3.0,4.0,50,0.00,,,0.00,0.00,VWS V14.00,2013-05-10 04:07:00,
2013-05-09 22:12:00,60.6,41.9,30.82,SSE,161,3.0,6.0,50,0.00,,,0.00,0.00,VWS V14.00,2013-05-10 04:12:00,
2013-05-09 22:17:00,60.5,42.3,30.82,SSE,160,4.0,6.0,51,0.00,,,0.00,0.00,VWS V14.00,2013-05-10 04:17:00,
2013-05-09 22:22:00,60.4,42.7,30.82,SSE,160,2.0,4.0,52,0.00,,,0.00,0.00,VWS V14.00,2013-05-10 04:22:00,
2013-05-09 22:27:00,60.2,43.0,30.82,SSE,167,3.0,5.0,53,0.00,,,0.00,0.00,VWS V14.00,2013-05-10 04:27:00,
2013-05-09 22:32:00,59.9,43.7,30.82,SSE,167,2.0,5.0,55,0.00,,,0.00,0.00,VWS V14.00,2013-05-10 04:32:00,
2013-05-09 22:37:00,59.2,43.1,30.83,SSE,167,2.0,3.0,55,0.00,,,0.00,0.00,VWS V14.00,2013-05-10 04:37:00,
2013-05-09 22:42:00,59.0,43.8,30.83,SSE,167,3.0,4.0,57,0.00,,,0.00,0.00,VWS V14.00,2013-05-10 04:42:00,
2013-05-09 22:47:00,58.7,43.5,30.84,SSE,165,3.0,5.0,57,0.00,,,0.00,0.00,VWS V14.00,2013-05-10 04:47:00,
2013-05-09 22:52:00,58.5,43.3,30.84,SSE,162,3.0,5.0,57,0.00,,,0.00,0.00,VWS V14.00,2013-05-10 04:52:00,
2013-05-09 22:57:00,58.3,43.6,30.84,SSE,168,3.0,5.0,58,0.00,,,0.00,0.00,VWS V14.00,2013-05-10 04:57:00,
2013-05-09 23:02:00,58.2,43.5,30.84,SSE,167,4.0,6.0,58,0.00,,,0.00,0.00,VWS V14.00,2013-05-10 05:02:00,
2013-05-09 23:07:00,58.1,43.9,30.83,South,169,2.0,3.0,59,0.00,,,0.00,0.00,VWS V14.00,2013-05-10 05:07:00,
2013-05-09 23:12:00,57.7,43.9,30.83,SSE,168,3.0,5.0,60,0.00,,,0.00,0.00,VWS V14.00,2013-05-10 05:12:00,
2013-05-09 23:17:00,57.3,44.0,30.84,South,169,4.0,5.0,61,0.00,,,0.00,0.00,VWS V14.00,2013-05-10 05:17:00,
2013-05-09 23:22:00,56.9,44.0,30.84,SSE,165,3.0,5.0,62,0.00,,,0.00,0.00,VWS V14.00,2013-05-10 05:22:00,
2013-05-09 23:27:00,56.8,44.3,30.84,SSE,166,3.0,5.0,63,0.00,,,0.00,0.00,VWS V14.00,2013-05-10 05:27:00,
2013-05-09 23:32:00,56.6,43.3,30.84,SSE,165,4.0,5.0,61,0.00,,,0.00,0.00,VWS V14.00,2013-05-10 05:32:00,
2013-05-09 23:37:00,56.4,42.7,30.84,SSE,163,4.0,4.0,60,0.00,,,0.00,0.00,VWS V14.00,2013-05-10 05:37:00,
2013-05-09 23:42:00,56.4,42.3,30.84,SSE,159,3.0,7.0,59,0.00,,,0.00,0.00,VWS V14.00,2013-05-10 05:42:00,
2013-05-09 23:47:00,56.5,41.9,30.84,SSE,157,5.0,7.0,58,0.00,,,0.00,0.00,VWS V14.00,2013-05-10 05:47:00,
2013-05-09 23:52:00,56.6,41.6,30.84,SSE,161,5.0,7.0,57,0.00,,,0.00,0.00,VWS V14.00,2013-05-10 05:52:00,
2013-05-09 23:57:00,56.7,41.7,30.84,SSE,152,4.0,7.0,57,0.00,,,0.00,0.00,VWS V14.00,2013-05-10 05:57:00,